星链-33890 (STARLINK-33890)

导读

STARLINK-33890是美国太空探索技术公司Starlink卫星星座中的一员,于2025年8月27日发射升空,属于低轨互联网通信卫星。该卫星承担着为全球提供高速宽带互联网服务的任务,尤其覆盖偏远与网络基础设施薄弱区域,进一步扩充了星链星座的通信覆盖范围与服务容量。

基本信息
目录编号:
65332
目录名称:
STARLINK-33890
国际标识:
2025-189K
轨道中心:
EARTH
卫星名称:
星链-33890
卫星全名:
星链-33890 (STARLINK-33890)
卫星状态:
在轨 (已飞行373 天)
发射日期:
2025-08-27 UTC
国别 :
美国 (US)
星等 :
--
轨道信息
数据来源 国际轨道数据
星历时间: 2026-09-03T15:45:54+0800
1天前
查看轨道信息
半长轴: 6848.83km
偏心率: 0.0000722
轨道倾角: 53.159°
近地点辐角 73.512°
升交点赤经 100.204°
平近点角 286.596°
近地点: 470.198km
远地点: 471.188km
周期: 94.012分钟
每日圈数: 15.31716
详细信息
固有亮度:
5
最大亮度:
2.5
卫星平台:
Starlink V1.0
覆盖范围:
全球
运营商:
太空探索技术公司
运营商所在国:
美国
制造商(研发单位):
太空探索技术公司
制造商所在国:
美国
使用方式:
暂无
卫星简介
Starlink 计划是 SpaceX 推出的全球卫星互联网项目,通过发射低轨道卫星,为全球尤其是偏远地区提供高速、低延迟的互联网服务。自 2019 年起,Starlink 已部署数千颗卫星,旨在缩小全球数字鸿沟,推动互联网普及。该项目还为军事、航空等行业提供通信支持,带来广泛经济效益。
2D轨道图
3D轨道图
轨道高度分析图
轨道倾角分析图
轨道综合分析图
查看轨道综合分析图
交会数据列表
事件ID 空间交会对象 最接近时刻(TCA) 交会距离 交会风险概率(CRP) 交会风险指数(CRI) 操作
CDM_260903-055605-634406-533221
2026-09-03T
05:56:42+0000
2.748 km
极远距离
1.461702E-6 低风险 0.38